FW0639 Weather Reports


Display with metric or nautical units.
time (UTC)temp
F
wind
direction
speed
MPH
gust
MPH
rain 1hr
in
rain 24hr
in
rain mn
in
humidity
%
barometer
mb
20260503034751 51 359 0.0 0.0 0.00 0.00 0.00 62 1014.9
20260503033747 52 357 0.0 0.0 0.00 0.00 0.00 62 1014.8
20260503032737 53 355 0.0 0.0 0.00 0.00 0.00 59 1014.8
20260503025533 54 349 0.0 2.0 0.00 0.00 0.00 54 1014.4
20260503024519 55 347 0.0 0.0 0.00 0.00 0.00 54 1014.3
20260503023511 57 347 0.0 0.0 0.00 0.00 0.00 51 1014.3
20260503015035 61 339 0.0 0.0 0.00 0.00 0.00 42 1013.9
20260503014017 62 338 0.0 0.0 0.00 0.00 0.00 39 1013.8
20260503012958 63 338 0.0 0.0 0.00 0.00 0.00 39 1013.8
20260503010820 64 338 0.0 2.0 0.00 0.00 0.00 37 1013.8
20260503005759 64 338 1.0 6.0 0.00 0.00 0.00 37 1013.9
20260503004801 65 338 1.0 6.0 0.00 0.00 0.00 35 1013.9
20260503003804 65 338 0.0 4.0 0.00 0.00 0.00 35 1013.9
20260503002815 65 339 1.0 4.0 0.00 0.00 0.00 35 1014.0
20260503001804 65 338 1.0 4.0 0.00 0.00 0.00 35 1014.1
20260503000811 65 338 1.0 4.0 0.00 0.00 0.00 35 1014.1
20260502235833 65 338 0.0 4.0 0.00 0.00 0.00 36 1014.1
20260502234807 65 339 2.0 6.0 0.00 0.00 0.00 36 1014.2
20260502233753 65 340 2.0 7.0 0.00 0.00 0.00 37 1014.3
20260502232808 65 342 2.0 10.0 0.00 0.00 0.00 35 1014.3
20260502231813 65 339 2.0 10.0 0.00 0.00 0.00 38 1014.4
20260502225602 65 338 1.0 3.0 0.00 0.00 0.00 35 1014.5
20260502224550 64 338 1.0 3.0 0.00 0.00 0.00 38 1014.5
20260502222409 64 337 1.0 4.0 0.00 0.00 0.00 39 1014.8
20260502221431 64 337 1.0 6.0 0.00 0.00 0.00 37 1014.9
20260502220450 65 337 2.0 7.0 0.00 0.00 0.00 36 1014.9
20260502215453 66 338 1.0 7.0 0.00 0.00 0.00 38 1015.1
20260502214427 65 337 2.0 7.0 0.00 0.00 0.00 38 1015.1
20260502213444 64 337 1.0 6.0 0.00 0.00 0.00 38 1015.2
20260502212425 65 337 1.0 6.0 0.00 0.00 0.00 39 1015.2
20260502211359 65 338 2.0 6.0 0.00 0.00 0.00 38 1015.2
20260502210349 65 337 1.0 7.0 0.00 0.00 0.00 38 1015.1
20260502205321 65 337 2.0 7.0 0.00 0.00 0.00 38 1015.2
20260502203229 66 3 1.0 9.0 0.00 0.00 0.00 35 1015.3
20260502202210 67 337 1.0 6.0 0.00 0.00 0.00 34 1015.3
20260502201235 67 344 3.0 9.0 0.00 0.00 0.00 36 1015.4
20260502200212 66 337 0.0 6.0 0.00 0.00 0.00 36 1015.5
20260502195145 66 33 2.0 6.0 0.00 0.00 0.00 36 1015.6
20260502194141 65 337 1.0 4.0 0.00 0.00 0.00 35 1015.7
20260502193116 65 337 2.0 5.0 0.00 0.00 0.00 38 1015.7
20260502192042 64 183 1.0 5.0 0.00 0.00 0.00 36 1015.7
20260502191049 63 184 1.0 3.0 0.00 0.00 0.00 37 1015.9
20260502190050 63 184 1.0 3.0 0.00 0.00 0.00 37 1016.0
20260502185019 62 184 1.0 3.0 0.00 0.00 0.00 40 1016.1
20260502183954 62 184 1.0 4.0 0.00 0.00 0.00 38 1016.2
20260502182941 62 184 2.0 4.0 0.00 0.00 0.00 39 1016.3
20260502181948 63 184 1.0 4.0 0.00 0.00 0.00 38 1016.4
20260502180918 63 184 1.0 6.0 0.00 0.00 0.00 37 1016.5
20260502163706 59 16 0.0 3.0 0.00 0.00 0.00 38 1016.9
20260502162653 59 199 1.0 6.0 0.00 0.00 0.00 39 1016.9
20260502161700 58 80 1.0 6.0 0.00 0.00 0.00 41 1016.9
20260502160714 57 30 0.0 1.0 0.00 0.00 0.00 42 1017.0
20260502151706 54 338 0.0 3.0 0.00 0.00 0.00 44 1017.0
20260502150726 54 338 0.0 3.0 0.00 0.00 0.00 46 1017.0
20260502130314 35 201 0.0 0.0 0.00 0.00 0.00 80 1016.3
20260502123158 35 201 0.0 0.0 0.00 0.00 0.00 81 1016.1
20260502122138 35 201 0.0 1.0 0.00 0.00 0.00 81 1016.0
20260502121105 35 201 0.0 0.0 0.00 0.00 0.00 81 1016.0
20260502113802 35 201 0.0 0.0 0.00 0.00 0.00 80 1015.7
20260502112745 35 201 0.0 0.0 0.00 0.00 0.00 80 1015.6
20260502110548 35 201 0.0 0.0 0.00 0.00 0.00 80 1015.6
20260502105537 35 201 0.0 0.0 0.00 0.00 0.00 80 1015.6
20260502104533 35 201 0.0 0.0 0.00 0.00 0.00 80 1015.6
20260502103508 35 201 0.0 0.0 0.00 0.00 0.00 80 1015.5
20260502102440 36 201 0.0 0.0 0.00 0.00 0.00 80 1015.5
20260502101409 36 202 0.0 0.0 0.00 0.00 0.00 80 1015.5
20260502100340 36 202 0.0 0.0 0.00 0.00 0.00 80 1015.5
20260502091239 37 202 0.0 0.0 0.00 0.00 0.00 78 1015.3
20260502090227 37 202 0.0 0.0 0.00 0.00 0.00 78 1015.2
20260502065832 40 202 0.0 0.0 0.00 0.00 0.00 73 1014.8
20260502064850 40 202 0.0 0.0 0.00 0.00 0.00 72 1014.8
20260502063821 40 202 0.0 0.0 0.00 0.00 0.00 72 1014.8
20260502062834 41 202 0.0 0.0 0.00 0.00 0.00 72 1014.8
20260502061845 41 202 0.0 0.0 0.00 0.00 0.00 71 1014.9
20260502060853 42 40 0.0 0.0 0.00 0.00 0.00 71 1015.0
20260502055852 42 39 0.0 0.0 0.00 0.00 0.00 70 1015.0
20260502054818 43 42 0.0 2.0 0.00 0.00 0.00 69 1015.0
20260502051535 44 30 0.0 0.0 0.00 0.00 0.00 68 1015.4
20260502044251 46 22 0.0 3.0 0.00 0.00 0.00 63 1015.5
20260502042137 47 14 0.0 0.0 0.00 0.00 0.00 63 1015.5
20260502041143 48 10 0.0 2.0 0.00 0.00 0.00 62 1015.6
20260502040154 48 9 0.0 4.0 0.00 0.00 0.00 61 1015.6